[[{"header":{"parameterUnit":"m.s-1","parameterCategory":1,"la1":30.2991,"la2":30.254,"lo1":-89.0895,"lo2":-89.0444,"dx":0.0017,"dy":0.0017,"nx":28,"ny":28,"refTime":"2023-01-23T03:00:00:Z","depth":0,"parameterNumber":2,"parameterNumberName":"U-component_of_WINDS"},"data":[0,0,0,0,0,0,0,0,0,0,0,0,0,0,0,0,0,0,0,0,0,0,0,0,0,0,0,0,0,0,0,0,0,0,0,0,0,0,0,0,0,0,0,0,0,0,0,0,0,0,0,0,0,0,0,0,0,0,-8.1803,-8.1804,0,-8.1859,-8.186,-8.186,-8.1731,-8.1727,-8.1723,-8.1719,-8.1774,-8.1779,-8.1785,0,0,0,0,0,0,0,0,0,0,0,0,0,-8.1583,-8.1588,-8.1803,-8.1804,-8.1805,-8.1859,-8.186,-8.1861,-8.1732,-8.1727,-8.1722,-8.1717,-8.1772,-8.1779,-8.1785,0,0,0,0,0,0,0,0,0,0,0,0,0,-8.1663,-8.159,-8.1803,-8.1747,-8.1743,-8.1859,-8.186,-8.1861,-8.1733,-8.1727,-8.1721,-8.1715,-8.177,-8.1778,-8.1786,-8.1958,0,0,-8.181,-8.1814,0,0,0,0,0,0,0,0,-8.1659,-8.1671,-8.1755,-8.1751,-8.1746,-8.1782,-8.1802,-8.1893,-8.1735,-8.1737,-8.1719,-8.1712,-8.1782,-8.1788,-8.1812,-8.1961,-8.1963,-8.1811,-8.1816,-8.1819,-8.1821,0,0,0,0,0,0,0,-8.1653,-8.1668,-8.1825,-8.1756,-8.1751,-8.1719,-8.1723,-8.1819,-8.1793,-8.1736,-8.1727,-8.1735,-8.1778,-8.1805,-8.1813,-8.1964,-8.1811,-8.1818,-8.1823,-8.1826,-8.2257,-8.2263,0,0,0,0,0,0,-8.1655,-8.1664,-8.1823,-8.1827,-8.1687,-8.1728,-8.1733,-8.1777,-8.1792,-8.1788,-8.1741,-8.1729,-8.1794,-8.1803,-8.1814,-8.2015,-8.1819,-8.1826,-8.1831,-8.225,-8.2258,-8.2265,0,0,0,0,0,0,-8.1651,-8.1671,-8.1821,-8.1743,-8.176,-8.1738,-8.1789,-8.1781,-8.1807,-8.1795,-8.1789,-8.1773,-8.179,-8.1803,-8.1923,-8.2015,-8.183,-8.1837,-8.2242,-8.2253,-8.2262,-8.242,0,0,0,0,0,0,-8.1645,-8.167,-8.1735,-8.1746,-8.1765,-8.193,-8.1794,-8.1787,-8.1822,-8.1807,-8.1824,-8.182,-8.1786,-8.1912,-8.1931,-8.2023,-8.1843,-8.2234,-8.2247,-8.2259,-8.2407,-8.2435,-8.2458,0,0,0,0,0,-8.1638,-8.1777,-8.1739,-8.1759,-8.1846,-8.1936,-8.1947,-8.1905,-8.183,-8.1895,-8.1887,-8.182,-8.2004,-8.1926,-8.1946,-8.2041,-8.2228,-8.2243,-8.2258,-8.2395,-8.2429,-8.2458,0,0,0,0,0,0,-8.1777,-8.1777,-8.1735,-8.1882,-8.1911,-8.1914,-8.1994,-8.1942,-8.1991,-8.1975,-8.1921,-8.1926,-8.2057,-8.2062,-8.1975,-8.2209,-8.2103,-8.2122,-8.22,-8.2232,-8.2258,-8.2252,-8.185,0,0,0,0,0,-8.1825,-8.1899,-8.1895,-8.2025,-8.2042,-8.2017,-8.2054,-8.202,-8.2046,-8.2057,-8.2058,-8.2085,-8.2149,-8.2191,-8.2249,-8.2409,-8.2409,-8.2484,-8.251,-8.2532,-8.2548,-8.2631,-8.2664,-8.2315,-8.2315,-8.2314,0,0,-8.1924,-8.1934,-8.1983,-8.2054,-8.2071,-8.2147,-8.2027,-8.2113,-8.2169,-8.2069,-8.2182,-8.2185,-8.2212,-8.2353,-8.2415,-8.2361,-8.2645,-8.2551,-8.2568,-8.2572,-8.265,-8.2683,-8.2712,-8.2325,-8.2323,-8.2321,0,0,-8.2143,-8.2159,-8.2268,-8.2289,-8.2318,-8.2301,-8.2328,-8.234,-8.2338,-8.2452,-8.2378,-8.2445,-8.2556,-8.2578,-8.2604,-8.2835,-8.2774,-8.2856,-8.2989,-8.3071,-8.3098,-8.3122,-8.3202,-8.3232,-8.2873,-8.2874,-8.2874,0,-8.2262,-8.2375,-8.2331,-8.2423,-8.2455,-8.2371,-8.2481,-8.2503,-8.255,-8.2574,-8.2514,-8.2652,-8.2664,-8.2808,-8.2865,-8.2889,-8.2917,-8.2851,-8.3098,-8.3122,-8.3143,-8.3219,-8.3249,-8.2883,-8.2882,-8.2881,-8.288,0,-8.2519,-8.2599,-8.2684,-8.2731,-8.2774,-8.2875,-8.2846,-8.2894,-8.2858,-8.2847,-8.2964,-8.2977,-8.3035,-8.3068,-8.3033,-8.3207,-8.3173,-8.3107,-8.2998,-8.3187,-8.3256,-8.3285,-8.2897,-8.2893,-8.289,-8.2888,0,0,-8.2822,-8.2847,-8.2878,-8.2899,-8.2926,-8.2986,-8.3084,-8.3142,-8.3184,-8.322,-8.3299,-8.3397,-8.3336,-8.3365,-8.3333,-8.3405,-8.3585,-8.333,-8.3329,-8.3374,-8.3775,-8.3822,-8.3856,-8.3547,-8.3552,-8.3557,-8.3772,0,-8.3036,-8.3203,-8.3168,-8.3331,-8.3404,-8.3327,-8.3411,-8.3437,-8.3431,-8.3491,-8.3484,-8.3553,-8.3469,-8.3486,-8.3555,-8.3548,-8.3664,-8.3533,-8.3617,-8.3621,-8.3608,-8.3893,-8.3942,-8.4145,-8.3799,-8.3804,-8.3807,0,-8.3307,-8.3354,-8.3525,-8.3541,-8.357,-8.3647,-8.3698,-8.3757,-8.3785,-8.3775,-8.3811,-8.3764,-8.386,-8.3754,-8.3884,-8.3796,-8.3829,-8.3832,-8.3839,-8.3841,-8.3722,-8.39,-8.4208,-8.4237,-8.3851,-8.3847,-8.3844,0,-8.3507,-8.3614,-8.373,-8.375,-8.3773,-8.3828,-8.384,-8.3862,-8.39,-8.3945,-8.3968,-8.4025,-8.4055,-8.4099,-8.4069,-8.3995,-8.4204,-8.4096,-8.4196,-8.4197,-8.4239,-8.4236,-8.4554,-8.4269,-8.4268,-8.4268,-8.4267,0,-8.3747,-8.3854,-8.382,-8.389,-8.4008,-8.3968,-8.4085,-8.4088,-8.4109,-8.4178,-8.4117,-8.4183,-8.4141,-8.4205,-8.4182,-8.4292,-8.4307,-8.4301,-8.4293,-8.4304,-8.4304,-8.4321,-8.4304,-8.4276,-8.4274,-8.4272,-8.4271,0,-8.3988,-8.397,-8.409,-8.4103,-8.4109,-8.4195,-8.4205,-8.427,-8.4261,-8.435,-8.4369,-8.4354,-8.4425,-8.4401,-8.4477,-8.4462,-8.4602,-8.4578,-8.4592,-8.4584,-8.4685,-8.4674,-8.502,-8.5063,-8.4755,-8.4758,-8.476,0,-8.414,-8.422,-8.4243,-8.4285,-8.4302,-8.4372,-8.441,-8.4375,-8.4418,-8.4457,-8.4518,-8.4584,-8.4634,-8.4752,-8.4747,-8.4806,-8.478,-8.4898,-8.4788,-8.4796,-8.4777,-8.4771,-8.4778,-8.4918,-8.4921,-8.4924,-8.4927,0,-8.4411,-8.4398,-8.4457,-8.4513,-8.4562,-8.4604,-8.4641,-8.4679,-8.4646,-8.4698,-8.477,-8.481,-8.4889,-8.4955,-8.5008,-8.5019,-8.4967,-8.4963,-8.4988,-8.4997,-8.5001,-8.4997,-8.4647,-8.4953,-8.495,-8.4948,-8.4947,-8.4946,-8.4609,-8.4676,-8.4703,-8.477,-8.4795,-8.4831,-8.4893,-8.4893,-8.4953,-8.5015,-8.4991,-8.5075,-8.5101,-8.5168,-8.5187,-8.5251,-8.5205,-8.5243,-8.5252,-8.5261,-8.5272,-8.4996,-8.5261,-8.526,-8.526,-8.5259,-8.5258,0,-8.4873,-8.4887,-8.495,-8.5004,-8.5057,-8.5007,-8.5046,-8.5093,-8.5167,-8.5198,-8.525,-8.5333,-8.5398,-8.54,-8.546,-8.5511,-8.5489,-8.5527,-8.5521,-8.5524,-8.5311,-8.5281,-8.5544,-8.5544,-8.5544,-8.5544,-8.5544,-8.5544,-8.5016,-8.5127,-8.5119,-8.5242,-8.5255,-8.5336,-8.5362,-8.5395,-8.5419,-8.5516,-8.5569,-8.5571,-8.559,-8.5652,-8.5708,-8.5707,-8.573,-8.5778,-8.5767,-8.5568,-8.5539,-8.5512,-8.5483,-8.5784,-8.5785,-8.5974,-8.5976,-8.5977]},{"header":{"parameterUnit":"m.s-1","parameterCategory":1,"la1":30.2991,"la2":30.254,"lo1":-89.0895,"lo2":-89.0444,"dx":0.0017,"dy":0.0017,"nx":28,"ny":28,"refTime":"2023-01-23T03:00:00:Z","depth":0,"parameterNumber":3,"parameterNumberName":"V-component_of_WINDS"},"data":[0,0,0,0,0,0,0,0,0,0,0,0,0,0,0,0,0,0,0,0,0,0,0,0,0,0,0,0,0,0,0,0,0,0,0,0,0,0,0,0,0,0,0,0,0,0,0,0,0,0,0,0,0,0,0,0,0,0,1.0562,1.0563,0,1.0623,1.0624,1.0624,1.0651,1.065,1.065,1.065,1.0711,1.0713,1.0714,0,0,0,0,0,0,0,0,0,0,0,0,0,1.047,1.0471,1.0562,1.0563,1.0563,1.0623,1.0624,1.0624,1.0651,1.065,1.065,1.065,1.0711,1.0713,1.0715,0,0,0,0,0,0,0,0,0,0,0,0,0,1.0518,1.0472,1.0562,1.0584,1.0586,1.0623,1.0624,1.0625,1.0651,1.065,1.065,1.065,1.071,1.0712,1.0715,1.0734,0,0,1.0723,1.0724,0,0,0,0,0,0,0,0,1.0515,1.0521,1.058,1.0582,1.0585,1.0629,1.0613,1.0661,1.0651,1.0626,1.065,1.065,1.0684,1.0689,1.07,1.0736,1.0739,1.0723,1.0725,1.0726,1.0726,0,0,0,0,0,0,0,1.0512,1.0519,1.0586,1.058,1.0584,1.0591,1.0598,1.0623,1.0655,1.0628,1.063,1.0637,1.0685,1.0698,1.0702,1.074,1.0723,1.0725,1.0727,1.0728,1.0799,1.0799,0,0,0,0,0,0,1.0505,1.0516,1.0584,1.0588,1.0549,1.0593,1.06,1.0615,1.0655,1.0661,1.0637,1.0638,1.0693,1.0699,1.0704,1.0731,1.0726,1.0728,1.0729,1.0799,1.0799,1.0799,0,0,0,0,0,0,1.0503,1.0511,1.0582,1.0552,1.0562,1.0594,1.0611,1.0616,1.0629,1.0662,1.0668,1.0644,1.0693,1.07,1.0727,1.0734,1.0729,1.0732,1.0798,1.0799,1.0799,1.0784,0,0,0,0,0,0,1.05,1.051,1.0516,1.0552,1.0563,1.0603,1.0611,1.0618,1.0633,1.0635,1.0669,1.0675,1.0694,1.0723,1.073,1.0737,1.0734,1.0798,1.0798,1.0799,1.0784,1.0784,1.0784,0,0,0,0,0,1.0497,1.0509,1.0517,1.0525,1.0573,1.0603,1.061,1.0632,1.0634,1.0641,1.0663,1.0674,1.0732,1.0726,1.0733,1.0741,1.0797,1.0798,1.0799,1.0784,1.0784,1.0784,0,0,0,0,0,0,1.0471,1.0514,1.0523,1.0547,1.0572,1.0608,1.0618,1.063,1.0654,1.0655,1.0681,1.0688,1.0713,1.073,1.0722,1.0764,1.0766,1.0768,1.0752,1.0752,1.0752,1.0748,1.0736,0,0,0,0,0,1.0468,1.049,1.0526,1.0543,1.0556,1.0585,1.0599,1.0614,1.064,1.065,1.0674,1.0699,1.0723,1.0738,1.0762,1.0787,1.0796,1.0797,1.0796,1.0796,1.0798,1.0816,1.0817,1.0802,1.0802,1.0802,0,0,1.0463,1.0489,1.05,1.0539,1.056,1.0582,1.0593,1.0615,1.0633,1.0654,1.0681,1.07,1.0729,1.0756,1.0769,1.0771,1.0805,1.0797,1.0797,1.0799,1.0817,1.0818,1.0819,1.0802,1.0802,1.0802,0,0,1.0464,1.0485,1.0504,1.0525,1.0558,1.0578,1.0582,1.0617,1.0631,1.0659,1.0677,1.0698,1.0738,1.076,1.0776,1.079,1.0802,1.0797,1.0797,1.0814,1.0815,1.0816,1.0823,1.0825,1.0799,1.0799,1.0799,0,1.0453,1.0487,1.0512,1.0534,1.0552,1.0574,1.0594,1.0614,1.0652,1.0664,1.0666,1.072,1.0741,1.0775,1.0779,1.079,1.0798,1.0793,1.0813,1.0814,1.0816,1.0823,1.0826,1.0798,1.0798,1.0798,1.0798,0,1.0473,1.0497,1.0508,1.0547,1.0566,1.0586,1.0615,1.0632,1.0646,1.0667,1.0697,1.0724,1.0755,1.0764,1.0777,1.0801,1.0802,1.0808,1.081,1.0816,1.0824,1.0826,1.0797,1.0797,1.0798,1.0798,0,0,1.0458,1.0512,1.0516,1.0536,1.0574,1.0594,1.0617,1.0649,1.0664,1.069,1.0712,1.0747,1.0754,1.0773,1.0789,1.0804,1.0817,1.0809,1.081,1.0811,1.0848,1.0844,1.0847,1.0825,1.0826,1.0826,1.0846,0,1.0466,1.0509,1.0534,1.0567,1.0591,1.0614,1.0635,1.0662,1.0682,1.0706,1.0728,1.0754,1.076,1.0772,1.0788,1.0812,1.0825,1.0811,1.0847,1.0848,1.084,1.085,1.0846,1.0863,1.0849,1.0849,1.085,0,1.048,1.0509,1.0545,1.0585,1.0596,1.0614,1.0648,1.0669,1.0701,1.0715,1.0738,1.0755,1.0783,1.0784,1.0823,1.0813,1.0829,1.0844,1.0845,1.085,1.085,1.0857,1.0869,1.0872,1.0854,1.0854,1.0854,0,1.0469,1.0515,1.0544,1.056,1.0606,1.0619,1.0639,1.0671,1.069,1.0719,1.0732,1.0764,1.0781,1.0806,1.0832,1.0829,1.087,1.0871,1.0883,1.0883,1.0891,1.089,1.0906,1.0899,1.0899,1.0899,1.0899,0,1.0475,1.0497,1.054,1.0558,1.0584,1.0613,1.0638,1.066,1.0689,1.0712,1.0734,1.0755,1.0788,1.0814,1.0834,1.0865,1.0872,1.0886,1.0891,1.0885,1.0883,1.0896,1.0896,1.09,1.0899,1.0899,1.0899,0,1.0466,1.0495,1.0529,1.0571,1.0583,1.06,1.0637,1.0656,1.0679,1.0709,1.0717,1.0753,1.0785,1.0814,1.0856,1.087,1.0902,1.0908,1.0892,1.0895,1.0906,1.0905,1.0932,1.0939,1.0925,1.0925,1.0925,0,1.0469,1.0487,1.0532,1.055,1.057,1.0598,1.0619,1.0649,1.0669,1.071,1.0724,1.0759,1.0788,1.0838,1.0868,1.0902,1.0909,1.0917,1.0914,1.0909,1.0912,1.0911,1.0915,1.0917,1.0917,1.0917,1.0917,0,1.0472,1.0486,1.0515,1.055,1.0575,1.0603,1.0632,1.0646,1.0682,1.0704,1.0739,1.0761,1.0806,1.0841,1.0878,1.09,1.0915,1.0918,1.0922,1.0916,1.0907,1.0915,1.0894,1.0917,1.0917,1.0917,1.0917,1.0917,1.047,1.0488,1.0524,1.0557,1.0583,1.0611,1.0632,1.0659,1.0688,1.0728,1.0744,1.0779,1.0814,1.0867,1.0888,1.0917,1.092,1.0926,1.0928,1.093,1.093,1.0902,1.0924,1.0924,1.0924,1.0924,1.0924,0,1.0475,1.0501,1.053,1.0572,1.0599,1.0612,1.0647,1.0668,1.0699,1.0731,1.076,1.0801,1.0836,1.087,1.0907,1.0924,1.0932,1.0933,1.0932,1.0938,1.0924,1.0917,1.0926,1.0926,1.0926,1.0926,1.0926,1.0926,1.0481,1.0514,1.0534,1.0581,1.0606,1.0642,1.0661,1.0688,1.0714,1.076,1.0789,1.0812,1.0845,1.0886,1.0919,1.0928,1.0942,1.0941,1.0952,1.0939,1.0938,1.0938,1.0931,1.0943,1.0943,1.0963,1.0964,1.0964]}]]